Tracking 28238 objects as of 28-Nov-2023
HD Live streaming from Space Station
objects crossing your sky now

SL-8 DEB

Track SL-8 DEB now!
10-day predictions


NORAD ID: 21187
Int'l Code: 1991-009BA
Perigee: 1,501.8 km
Apogee: 1,791.2 km
Inclination: 74.2 °
Period: 119.1 minutes
Semi major axis: 8017 km
RCS: 0.05 m2 (small)
Launch date: February 12, 1991
Source: Commonwealth of Independent States (former USSR) (CIS)
Launch site: PLESETSK MISSILE AND SPACE COMPLEX (PKMTR)

Note: This is SATELLITE DEBRIS
Your satellite tracking list
Your tracking list is empty




NASA's NSSDC Master Catalog

Two Line Element Set (TLE):
1 21187U 91009BA  23332.16720812  .00000380  00000-0  41500-2 0  9991
2 21187  74.2491  48.1685 0180522 283.9028  97.9976 12.09332203444633
Source of the keplerian elements: AFSPC